TimeEST,TemperatureF,Dew PointF,Humidity,Sea Level PressureIn,VisibilityMPH,Wind Direction,Wind SpeedMPH,Gust SpeedMPH,PrecipitationIn,Events,Conditions,WindDirDegrees,DateUTC
12:20 AM,48.2,30.2,50,30.06,4.0,WNW,9.2,-,0.00,,Haze,300,2013-12-30 05:20:00
12:53 AM,46.0,28.9,51,30.08,10.0,NW,5.8,-,0.00,,Overcast,310,2013-12-30 05:53:00
1:53 AM,39.0,27.0,62,30.10,10.0,NW,10.4,-,N/A,,Overcast,320,2013-12-30 06:53:00
2:53 AM,39.0,25.0,57,30.12,10.0,NW,8.1,-,N/A,,Overcast,320,2013-12-30 07:53:00
3:53 AM,45.0,25.0,46,30.15,10.0,NNW,5.8,-,N/A,,Overcast,330,2013-12-30 08:53:00
4:53 AM,46.0,23.0,40,30.15,10.0,NW,6.9,-,N/A,,Overcast,310,2013-12-30 09:53:00
5:53 AM,46.0,23.0,40,30.18,10.0,West,8.1,17.3,N/A,,Overcast,280,2013-12-30 10:53:00
6:17 AM,44.6,24.8,46,30.18,10.0,West,9.2,-,N/A,,Overcast,270,2013-12-30 11:17:00
6:53 AM,46.9,21.9,37,30.20,10.0,West,9.2,-,N/A,,Overcast,280,2013-12-30 11:53:00
6:56 AM,46.4,21.2,37,30.20,10.0,WNW,6.9,-,N/A,,Overcast,290,2013-12-30 11:56:00
7:53 AM,43.0,21.9,43,30.23,10.0,West,13.8,-,N/A,,Overcast,270,2013-12-30 12:53:00
8:53 AM,41.0,21.0,45,30.25,8.0,West,10.4,-,N/A,,Unknown,270,2013-12-30 13:53:00
9:07 AM,41.0,21.2,45,30.25,8.0,West,10.4,-,0.00,,Unknown,260,2013-12-30 14:07:00
9:27 AM,44.6,21.2,39,30.25,2.0,WNW,5.8,-,0.00,,Unknown,290,2013-12-30 14:27:00
9:53 AM,36.0,21.0,55,30.27,5.0,WNW,5.8,-,0.00,Snow,Light Snow,290,2013-12-30 14:53:00
10:53 AM,30.0,19.0,64,30.28,10.0,WNW,6.9,-,0.01,Snow,Light Snow,290,2013-12-30 15:53:00
11:53 AM,28.0,19.0,69,30.27,9.0,NW,4.6,-,0.00,Snow,Light Snow,320,2013-12-30 16:53:00
12:53 PM,28.9,17.1,61,30.25,10.0,WSW,5.8,-,0.00,,Overcast,250,2013-12-30 17:53:00
1:53 PM,28.9,18.0,64,30.24,10.0,NW,6.9,-,N/A,,Overcast,310,2013-12-30 18:53:00
2:53 PM,28.0,18.0,66,30.23,10.0,West,5.8,-,N/A,,Overcast,280,2013-12-30 19:53:00
3:53 PM,28.0,18.0,66,30.22,10.0,West,5.8,-,N/A,,Overcast,280,2013-12-30 20:53:00
4:53 PM,27.0,17.1,66,30.23,10.0,West,6.9,-,N/A,,Overcast,280,2013-12-30 21:53:00
5:53 PM,27.0,17.1,66,30.24,10.0,West,8.1,-,N/A,,Overcast,280,2013-12-30 22:53:00
6:53 PM,26.1,16.0,66,30.26,10.0,West,10.4,-,N/A,,Overcast,270,2013-12-30 23:53:00
7:53 PM,25.0,15.1,66,30.26,10.0,West,8.1,-,N/A,,Partly Cloudy,280,2013-12-31 00:53:00
8:53 PM,25.0,15.1,66,30.27,10.0,West,6.9,-,N/A,,Mostly Cloudy,280,2013-12-31 01:53:00
9:53 PM,24.1,16.0,71,30.26,10.0,WSW,6.9,-,N/A,,Clear,240,2013-12-31 02:53:00
10:53 PM,25.0,16.0,69,30.26,10.0,WSW,6.9,-,N/A,,Clear,240,2013-12-31 03:53:00
11:53 PM,24.1,16.0,71,30.25,10.0,SSW,6.9,-,N/A,,Partly Cloudy,210,2013-12-31 04:53:00